Location: Chiroubles
(46.1812°N, 4.6660°E)
Time: 06:48:26
(UTC+00:00)

Transit 4A - Pass Details

Date: 05 December 2020
Orbit: 864 x 980 km, 66.8° (Epoch: 25 January)

Event Time Altitude Azimuth Distance (km) Brightness Sun altitude
Rises 10:37:59 0° 310° (NW) 3,689 10.6 20.3°
Reaches altitude 10° 10:43:05 10° 344° (NNW) 2,740 9.8 20.5°
Maximum altitude 10:44:50 11° 0° (N) 2,658 9.8 20.5°
Drops below altitude 10° 10:46:34 10° 16° (NNE) 2,733 9.9 20.6°
Sets 10:51:38 0° 51° (NE) 3,662 10.7 20.8°
